This demonstration page uses our WeatherBlox Daily Observations layout. Learn more.

Left ArrowRight Arrow

44.8408, -93.29828

Hourly Observations for September 19, 2020

Temp ( °F °C ) Dew Point ( °F °C ) Humidity (%) Winds ( mph kmh ) Pressure ( in mb ) Visibility ( mi km ) Precip ( " mm )
12:53 am 00:53 Clear 50 10 35 1.7 57 57 SSE 8 13 30.31 1026 10 16 0.00 0.00
1:53 am 01:53 Clear 50 10 35 1.7 57 57 SSE 9 15 30.31 1026 10 16 0.00 0.00
2:53 am 02:53 Clear 47 8.3 36 2.2 66 66 SSE 6 9 30.30 1026 10 16 0.00 0.00
3:53 am 03:53 Clear 47 8.3 37 2.8 69 69 SSE 6 9 30.29 1026 10 16 0.00 0.00
4:53 am 04:53 Clear 46 7.8 39 3.9 77 77 SSE 8 13 30.28 1026 10 16 0.00 0.00
5:53 am 05:53 Clear 48 8.9 41 5 77 77 S 8 13 30.27 1025 10 16 0.00 0.00
6:53 am 06:53 Clear 47 8.3 41 5 80 80 SSE 6 9 30.27 1025 10 16 0.00 0.00
7:53 am 07:53 Partly Cloudy 49 9.4 42 5.6 77 77 SSE 8 13 30.27 1025 10 16 0.00 0.00
8:53 am 08:53 Mostly Cloudy 52 11.1 44 6.7 75 75 S 9 15 30.26 1025 10 16 0.00 0.00
9:53 am 09:53 Cloudy 56 13.3 47 8.3 72 72 SSE 8 13 30.25 1025 10 16 0.00 0.00
10:53 am 10:53 Cloudy 59 15 49 9.4 69 69 SSE 9 15 30.26 1025 10 16 0.00 0.00
11:53 am 11:53 Mostly Sunny 66 18.9 50 10 56 56 S 8 13 30.24 1024 10 16 0.00 0.00
12:53 pm 12:53 Mostly Sunny 68 20 50 10 53 53 S 10 17 30.22 1023 10 16 0.00 0.00
1:53 pm 13:53 Mostly Sunny 69 20.6 50 10 51 51 S 13 20 30.19 1022 10 16 0.00 0.00
2:53 pm 14:53 Sunny 70 21.1 49 9.4 47 47 S 15 24 30.17 1022 10 16 0.00 0.00
3:53 pm 15:53 Sunny 70 21.1 50 10 49 49 S 14 22 30.15 1021 10 16 0.00 0.00
4:53 pm 16:53 Partly Cloudy 69 20.6 49 9.4 49 49 S 17 28 30.15 1021 10 16 0.00 0.00
5:53 pm 17:53 Partly Cloudy 68 20 49 9.4 51 51 S 13 20 30.14 1021 10 16 0.00 0.00
6:53 pm 18:53 Partly Cloudy 66 18.9 48 8.9 52 52 SSE 13 20 30.14 1021 10 16 0.00 0.00
7:53 pm 19:53 Mostly Clear 63 17.2 48 8.9 58 58 SSE 9 15 30.15 1021 10 16 0.00 0.00
8:53 pm 20:53 Mostly Clear 62 16.7 49 9.4 62 62 SSE 9 15 30.16 1021 10 16 0.00 0.00
9:53 pm 21:53 Mostly Clear 59 15 49 9.4 69 69 SSE 9 15 30.16 1021 10 16 0.00 0.00
10:53 pm 22:53 Mostly Clear 59 15 49 9.4 69 69 SSE 9 15 30.17 1022 10 16 0.00 0.00
11:53 pm 23:53 Mostly Clear 58 14.4 48 8.9 70 70 SSE 9 15 30.18 1022 10 16 0.00 0.00

Powered by AerisWeather